Location: Heisede
(52.2582°N, 9.8523°E)
Time: 23:31:54
(UTC+00:00)

Cosmos 2278 Rocket - Pass Details

Date: 13 January 2026
Orbit: 839 x 846 km, 71.0° (Epoch: 7 February)

Event Time Altitude Azimuth Distance (km) Brightness Sun altitude
Rises 05:26:29 0° 195° (SSW) 3,381 5.3 -17.2°
Reaches altitude 10° 05:28:56 10° 192° (SSW) 2,451 4.6 -16.9°
Maximum altitude 05:34:27 59° 114° (ESE) 970 2.8 -16.0°
Drops below altitude 10° 05:40:00 10° 36° (NE) 2,471 4.9 -15.2°
Sets 05:42:29 0° 33° (NNE) 3,411 5.6 -14.9°
